EW7835 Weather Reports


Display with metric or nautical units.
time (UTC)temp
F
wind
direction
speed
MPH
gust
MPH
rain 1hr
in
rain 24hr
in
rain mn
in
humidity
%
barometer
mb
20191122030136 35 121 0.0 0.0 0.01 0.06 0.06 92 1009.2
20191122024614 35 102 0.0 2.0 0.01 0.06 0.06 91 1009.9
20191122023129 35 88 0.0 0.0 0.00 0.05 0.05 90 1010.7
20191122021629 36 86 0.0 0.0 0.00 0.05 0.05 89 1011.2
20191122020115 36 87 0.0 0.0 0.00 0.05 0.05 89 1011.2
20191122014622 35 87 0.0 0.0 0.00 0.05 0.05 89 1011.5
20191122013104 35 87 0.0 0.0 0.00 0.05 0.05 89 1011.8
20191122011536 35 87 0.0 0.0 0.00 0.05 0.05 90 1011.9
20191122010052 35 87 0.0 0.0 0.00 0.05 0.05 90 1011.9
20191122004559 35 87 0.0 0.0 0.00 0.05 0.05 90 1012.1
20191122003050 35 87 0.0 0.0 0.00 0.05 0.05 91 1012.4
20191122001546 34 93 0.0 0.0 0.00 0.05 0.05 91 1012.7
20191122000048 34 99 0.0 0.0 0.00 0.05 0.05 91 1013.1
20191121234528 34 98 0.0 0.0 0.00 0.06 0.05 91 1013.3
20191121233020 34 113 0.0 0.0 0.00 0.06 0.05 91 1013.6
20191121231510 34 116 0.0 0.0 0.00 0.06 0.05 91 1014.0
20191121230022 34 101 0.0 0.0 0.00 0.06 0.05 91 1014.1
20191121224511 34 98 0.0 0.0 0.00 0.06 0.05 90 1014.3
20191121223009 35 98 0.0 0.0 0.00 0.06 0.05 89 1014.4
20191121221657 35 106 0.0 0.0 0.00 0.06 0.05 85 1014.5
20191121220237 37 171 0.0 0.0 0.00 0.06 0.05 83 1014.5
20191121214655 37 211 0.0 0.0 0.00 0.06 0.05 82 1014.8
20191121213144 37 211 0.0 0.0 0.00 0.06 0.05 82 1014.9
20191121211622 38 211 0.0 0.0 0.00 0.06 0.05 80 1015.1
20191121210159 38 211 0.0 0.0 0.00 0.06 0.05 80 1015.1
20191121204720 38 211 0.0 0.0 0.00 0.06 0.05 79 1015.2
20191121203130 38 211 0.0 0.0 0.00 0.06 0.05 79 1015.1
20191121201717 39 214 0.0 2.0 0.00 0.06 0.05 78 1015.1
20191121200220 39 232 0.0 3.0 0.00 0.06 0.05 76 1015.4
20191121194838 40 240 0.0 3.0 0.00 0.08 0.05 76 1015.6
20191121193137 40 242 0.0 1.0 0.00 0.08 0.05 76 1015.9
20191121191637 40 215 0.0 7.0 0.00 0.08 0.05 75 1016.1
20191121190233 41 294 1.0 7.0 0.00 0.08 0.05 74 1016.4
20191121184655 40 270 0.0 7.0 0.00 0.10 0.05 74 1016.5
20191121183123 40 250 0.0 8.0 0.00 0.10 0.05 75 1016.7
20191121181551 40 290 0.0 8.0 0.00 0.10 0.05 76 1016.9
20191121180148 39 271 0.0 0.0 0.00 0.10 0.05 76 1017.0
20191121174551 39 208 1.0 3.0 0.00 0.14 0.05 77 1017.0
20191121173058 38 209 2.0 9.0 0.01 0.14 0.05 79 1017.3
20191121171544 38 236 0.0 6.0 0.01 0.14 0.05 78 1017.5
20191121170114 39 267 3.0 12.0 0.02 0.14 0.05 76 1017.9
20191121164541 38 277 1.0 12.0 0.02 0.17 0.05 77 1018.4
20191121163127 39 269 0.0 11.0 0.02 0.16 0.04 78 1018.6
20191121161527 38 257 0.0 6.0 0.02 0.16 0.04 78 1018.8
20191121160101 38 276 1.0 8.0 0.02 0.15 0.03 79 1019.1
20191121154557 37 281 1.0 10.0 0.02 0.15 0.03 79 1019.3
20191121153026 36 263 0.0 1.0 0.01 0.14 0.02 80 1019.5
20191121151539 37 265 0.0 4.0 0.00 0.13 0.01 81 1019.4
20191121150012 35 265 0.0 1.0 0.01 0.13 0.01 83 1019.4
20191121144505 35 236 0.0 2.0 0.01 0.13 0.01 83 1019.4
20191121143008 35 273 0.0 0.0 0.01 0.13 0.01 84 1019.3
20191121141802 34 262 0.0 0.0 0.01 0.13 0.01 86 1019.3
20191121140155 33 300 0.0 4.0 0.00 0.12 0.00 87 1019.4
20191121134847 32 254 0.0 3.0 0.00 0.12 0.00 89 1019.6
20191121133213 31 250 1.0 4.0 0.00 0.12 0.00 91 1019.5
20191121131629 31 204 0.0 0.0 0.00 0.12 0.00 92 1019.6
20191121130120 30 269 0.0 1.0 0.00 0.12 0.00 94 1019.5
20191121124621 29 258 0.0 7.0 0.00 0.12 0.00 94 1019.7
20191121123130 29 216 0.0 0.0 0.00 0.12 0.00 94 1019.5
20191121121709 29 216 0.0 0.0 0.00 0.12 0.00 94 1019.4
20191121120143 28 216 0.0 0.0 0.00 0.12 0.00 94 1019.4
20191121114637 28 244 0.0 0.0 0.00 0.12 0.00 94 1019.3
20191121113141 28 243 0.0 0.0 0.00 0.12 0.00 94 1019.4
20191121111631 28 243 0.0 0.0 0.00 0.12 0.00 94 1019.2
20191121110106 28 246 0.0 0.0 0.00 0.12 0.00 93 1018.9
20191121104645 29 246 0.0 0.0 0.00 0.12 0.00 93 1018.9
20191121103059 29 246 0.0 0.0 0.00 0.12 0.00 93 1018.8
20191121101635 29 246 0.0 0.0 0.00 0.12 0.00 92 1018.7
20191121100145 30 246 0.0 1.0 0.00 0.12 0.00 92 1018.6
20191121094630 30 263 0.0 0.0 0.00 0.12 0.00 92 1018.6
20191121093113 30 281 0.0 6.0 0.00 0.12 0.00 92 1018.7
20191121091545 30 273 0.0 0.0 0.00 0.12 0.00 92 1018.5
20191121090104 29 273 0.0 0.0 0.00 0.12 0.00 92 1018.3
20191121084633 29 273 0.0 0.0 0.00 0.12 0.00 92 1018.2
20191121083047 30 273 0.0 0.0 0.00 0.12 0.00 92 1018.2
20191121081558 30 273 0.0 4.0 0.00 0.12 0.00 92 1018.3
20191121080205 30 265 0.0 0.0 0.00 0.12 0.00 92 1018.4
20191121074603 30 278 0.0 0.0 0.00 0.12 0.00 91 1018.3
20191121073132 30 276 0.0 0.0 0.00 0.12 0.00 90 1018.4
20191121071541 30 276 0.0 0.0 0.00 0.12 0.00 91 1018.4
20191121070106 31 277 0.0 0.0 0.00 0.12 0.00 90 1018.3
20191121064554 31 277 0.0 0.0 0.00 0.12 0.00 89 1018.2
20191121063103 31 277 0.0 0.0 0.00 0.12 0.00 89 1018.0
20191121061622 32 274 0.0 2.0 0.00 0.12 0.00 89 1018.1
20191121060027 32 260 0.0 1.0 0.00 0.12 0.00 89 1018.1
20191121054522 32 261 0.0 4.0 0.00 0.12 0.00 89 1017.9
20191121053014 32 262 0.0 0.0 0.00 0.12 0.00 88 1017.7
20191121051538 33 275 0.0 0.0 0.00 0.12 0.00 87 1017.7
20191121050020 33 276 0.0 0.0 0.00 0.12 0.00 86 1017.6
20191121044511 34 268 0.0 0.0 0.00 0.12 0.12 86 1017.7
20191121043014 34 267 0.0 0.0 0.00 0.12 0.12 86 1017.6
20191121041503 34 271 0.0 4.0 0.00 0.12 0.12 86 1017.5
20191121040010 34 270 0.0 0.0 0.00 0.12 0.12 86 1017.4
20191121034506 34 263 0.0 0.0 0.00 0.12 0.12 84 1017.5
20191121033149 34 271 0.0 1.0 0.00 0.12 0.12 82 1017.3
20191121031701 34 282 0.0 2.0 0.00 0.12 0.12 79 1017.0